Weather Roundup
Issued by NWS

Home | Current Version | Previous Version | Graphics & Text | Print | Product List | Glossary Off
Versions: 1 2 3 4 5 6 7 8 9 10 11 12 13 14 15 16 17 18 19 20 21 22 23 24 25 26 27 28 29 30 31 32 33 34 35 36 37 38 39 40 41 42 43 44 45 46 47 48 49 50

000
NZUS93 KARX 011410
HRRWXR

CURRENT HOURLY OBSERVATIONS ACROSS
MUCH OF THE UPPER MISSISSIPPI VALLEY
NATIONAL WEATHER SERVICE LA CROSSE WI
900 AM CDT WED OCT 01 2014


...SOUTHEAST MINNESOTA...


CITY           SKY/WX    TMP DP  RH WIND       PRES   REMARKS
ROCHESTER      LGT RAIN  49  47  93 SE17      29.87F FOG
ROCHESTER/MAYO CLOUDY    48  47  95 E8        29.87F
WINONA         CLOUDY    48  46  93 SE7       29.92S
AUSTIN         LGT RAIN  50  48  93 SE13      29.83F
ALBERT LEA     LGT RAIN  52  50  93 SE13      29.82S
DODGE CENTER   RAIN      50  48  93 SE17      29.85S
PRESTON        RAIN      48  46  95 SE9       29.89F
OWATONNA       RAIN      52  48  87 SE12      29.83S
FARIBAULT      RAIN      52  48  87 SE7       29.84S
$$

...ELSEWHERE IN MINNESOTA...


CITY           SKY/WX    TMP DP  RH WIND       PRES   REMARKS
MINNEAPOLIS    LGT RAIN  50  48  93 SE13      29.85F FOG
INTNL FALLS    CLOUDY    52  47  83 S10G20    29.73F
DULUTH         LGT RAIN  47  45  93 SE10      29.86R FOG
RED WING       LGT RAIN  50  48  93 SE14      29.88S
REDWOOD FALLS  CLOUDY    58  55  90 SE13      29.77S
MANKATO        CLOUDY    52  46  82 SE18      29.80S
WORTHINGTON    CLOUDY    57  55  94 CALM      29.77S
FAIRMONT       CLOUDY    54  48  82 SE9       29.78R
$$

...SOUTHWEST WISCONSIN...


CITY           SKY/WX    TMP DP  RH WIND       PRES   REMARKS
LA CROSSE      CLOUDY    53  47  79 SE7       29.93S
PRAIRIE DU CHI CLOUDY    53  46  77 E9        29.93R
BOSCOBEL       CLOUDY    55  47  74 VRB5      29.96R
LONE ROCK      PTSUNNY   58  47  66 SE12      29.97S
PLATTEVILLE    PTSUNNY   53  48  83 SE13      29.96R
FORT MC COY    CLOUDY    51  46  83 E3        29.95S
CAMP DOUGLAS   CLOUDY    50  50 100 E10       29.96S
VIROQUA        CLOUDY    50  49  96 SE12      29.93S
WIS DELLS      CLOUDY    51  46  82 SE9       29.98S
$$

...ELSEWHERE IN WISCONSIN...


CITY           SKY/WX    TMP DP  RH WIND       PRES   REMARKS
MILWAUKEE      PTSUNNY   57  49  74 S7        30.02R
MADISON        PTSUNNY   55  47  74 SE15      29.99S
GREEN BAY      CLOUDY    52  51  97 E7        30.02S FOG
EAU CLAIRE     CLOUDY    48  45  89 E7        29.92S
BLACK RVR FLS  CLOUDY    49  49  99 CALM      29.95S
MEDFORD        CLOUDY    47  44  92 SE10G17   29.96S
WAUSAU         CLOUDY    48  46  93 SE9       29.98S
WIS RAPIDS     CLOUDY    51  48  89 SE7       30.00R
MARSHFIELD     CLOUDY    50  46  86 S16G25    29.97R
RICE LAKE      RAIN      47  44  91 SE14      29.92R
$$

...NORTHEAST IOWA...


CITY           SKY/WX    TMP DP  RH WIND       PRES   REMARKS
DECORAH        CLOUDY    50  48  93 SE8       29.90F FOG
MASON CITY     LGT RAIN  51  50  96 SE14      29.83S FOG
CHARLES CITY   LGT RAIN  50  48  93 SE15G23   29.86F
OELWEIN        CLOUDY    52  48  87 SE15      29.89S
$$

...ELSEWHERE IN IOWA...


CITY           SKY/WX    TMP DP  RH WIND       PRES   REMARKS
DES MOINES     CLOUDY    61  58  90 SE10      29.80R FOG
IOWA CITY      CLOUDY    56  50  80 SE7       29.92S
FORT DODGE     CLOUDY    55  52  88 SE9G16    29.78R
$$

...NORTHERN ILLINOIS...


CITY           SKY/WX    TMP DP  RH WIND       PRES   REMARKS
CHICAGO-OHARE  MOSUNNY   56  47  71 SE13      30.02R
CHICAGO-MIDWAY MOSUNNY   58  48  69 SE13      30.02R
MOLINE         NOT AVBL
ROCKFORD       MOSUNNY   54  47  77 SE9       30.02R
PEORIA         SUNNY     59  50  72 SE9       29.97R
$$

NOTE: "FAIR" INDICATES FEW OR NO CLOUDS BELOW 12,000 FEET WITH NO
SIGNIFICANT WEATHER AND/OR OBSTRUCTIONS TO VISIBILITY. WIND
SPEEDS ARE IN MILES-PER-HOUR.



USA.gov is the U.S. government's official web portal to all federal, state and local government web resources and services.